Weather History for Mount Holly, NJ

Change the Weather History Date:

Thursday, January 19, 2012

  Actual Average (KWRI) Record (KWRI)
Temperature  
Mean Temperature 28 °F -  
Max Temperature 37 °F 35 °F 52 °F (2013)
Min Temperature 19 °F 20 °F 3 °F (2003)
Degree Days  
Heating Degree Days 37    
Moisture  
Dew Point 15 °F    
Average Humidity 57    
Maximum Humidity 73    
Minimum Humidity 36    
Precipitation  
Precipitation 0.00 in - - ()
Sea Level Pressure  
Sea Level Pressure 30.12 in    
Wind  
Wind Speed 3 mph (SSE)    
Max Wind Speed 8 mph    
Max Gust Speed 20 mph    
Visibility 10 miles    
Events      
Averages and records for this station are not official NWS values.
T = Trace of Precipitation, MM = Missing Value Source: NWS Daily Summary

Daily Weather History Graph

Daily Weather History Graph

Search for Another Location

Airport:

Trip Planner

Search our weather history database for the weather conditions in past years. The results will help you decide how hot, cold, wet, or windy it might be!

Date:

Astronomy

Jan. 19, 2012 Rise Set
Actual Time 7:17 AM EST 5:02 PM EST
Civil Twilight 6:48 AM EST 5:32 PM EST
Nautical Twilight 6:14 AM EST 6:05 PM EST
Astronomical Twilight 5:42 AM EST 6:37 PM EST
Moon 3:51 AM EST (1/19) 1:32 PM EST (1/19)
Length of Visible Light 10h 44m
Length of Day
9h 45m
Waning Crescent, 16% of the Moon is Illuminated
Jan 19
Waning Crescent
Jan 23
New
Jan 30
First Quarter
Feb 7
Full
Feb 14
Last Quarter

Hourly Weather History & Observations

Time (EST) Temp. Windchill Dew Point Humidity Pressure Visibility Wind Dir Wind Speed Gust Speed Precip Events Conditions
12:54 AM 23.0 °F 17.0 °F 10.9 °F 60% 30.20 in 10.0 mi North 4.6 mph - N/A   Clear
1:54 AM 21.9 °F 15.7 °F 10.9 °F 63% 30.21 in 10.0 mi North 4.6 mph - N/A   Clear
2:54 AM 21.9 °F 13.4 °F 10.9 °F 63% 30.21 in 10.0 mi North 6.9 mph - N/A   Clear
3:54 AM 21.0 °F - 10.0 °F 63% 30.19 in 10.0 mi Calm Calm - N/A   Clear
4:54 AM 21.0 °F - 10.0 °F 63% 30.21 in 10.0 mi Calm Calm - N/A   Clear
5:54 AM 19.9 °F - 10.0 °F 65% 30.22 in 10.0 mi Calm Calm - N/A   Clear
7:54 AM 19.9 °F - 12.0 °F 71% 30.24 in 10.0 mi Calm Calm - N/A   Clear
8:54 AM 24.1 °F 17.0 °F 10.9 °F 57% 30.25 in 10.0 mi NE 5.8 mph - N/A   Clear
9:54 AM 27.0 °F 23.0 °F 12.9 °F 56% 30.24 in 10.0 mi Variable 3.5 mph - N/A   Clear
10:54 AM 30.0 °F 26.5 °F 16.0 °F 56% 30.22 in 10.0 mi ENE 3.5 mph - N/A   Clear
11:54 AM 33.1 °F - 18.0 °F 54% 30.17 in 10.0 mi Calm Calm - N/A   Clear
1:54 PM 37.0 °F 33.3 °F 16.0 °F 42% 30.10 in 10.0 mi South 4.6 mph - N/A   Clear
2:54 PM 37.0 °F 33.3 °F 12.0 °F 36% 30.07 in 10.0 mi SSW 4.6 mph - N/A   Clear
3:54 PM 37.0 °F 32.4 °F 12.9 °F 37% 30.06 in 10.0 mi South 5.8 mph - N/A   Clear
4:54 PM 35.1 °F 32.2 °F 12.9 °F 40% 30.05 in 10.0 mi SSW 3.5 mph - N/A   Partly Cloudy
5:54 PM 35.1 °F 31.0 °F 14.0 °F 42% 30.04 in 10.0 mi South 4.6 mph - N/A   Overcast
6:54 PM 35.1 °F 28.6 °F 16.0 °F 46% 30.00 in 10.0 mi South 8.1 mph - N/A   Overcast
7:54 PM 34.0 °F 28.8 °F 19.9 °F 56% 29.96 in 10.0 mi South 5.8 mph 19.6 mph N/A   Clear
8:54 PM 33.1 °F - 21.9 °F 64% 29.97 in 10.0 mi Calm Calm - N/A   Clear
9:54 PM 33.1 °F - 21.9 °F 64% 29.98 in 10.0 mi Calm Calm - N/A   Overcast
10:54 PM 32.0 °F - 24.1 °F 73% 29.97 in 10.0 mi Calm Calm - N/A   Overcast
11:54 PM 30.9 °F - 23.0 °F 72% 29.97 in 10.0 mi Calm Calm - N/A   Overcast